Location: Yuryakh-Yurde
(63.3167°N, 143.2167°E)
Time: 19:31:17
(UTC+00:00)

Daily predictions for brighter satellites

Satellite Brightness Start Highest point End
(mag) Time Altitude Azimuth Time Altitude Azimuth Time Altitude Azimuth
USA 186 4.0 12:00:52 10° WSW 12:01:30 11° W 12:02:08 10° WNW
SL-16 R/B 4.0 12:01:54 12° ESE 12:02:56 12° E 12:05:06 10° ENE
Cosmos 1733 Rocket 3.0 12:00:43 14° S 12:04:25 67° E 12:08:48 10° NNE
Cosmos 405 Rocket 3.2 12:01:43 10° N 12:04:29 32° ENE 12:05:39 23° ESE
ARIANE 6 FM1 Upper Stage 2.9 12:01:38 10° SW 12:05:29 41° SSE 12:09:16 10° E
SJ 16-02 3.2 12:02:44 10° NNW 12:06:19 25° NNE 12:09:54 10° E
Geosat 4.1 12:03:47 10° NE 12:08:49 80° NW 12:13:50 10° SW
Ariane Rocket 3.5 12:05:33 13° S 12:10:01 54° WSW 12:14:59 10° NNW
USA 32 4.1 12:06:57 10° SSW 12:12:11 80° WNW 12:17:28 10° N
Cosmos 2278 4.3 12:07:12 10° WSW 12:12:49 60° NNW 12:18:29 10° NE
Cosmos 1727 Rocket 4.3 12:06:30 10° NNW 12:12:50 68° W 12:18:31 13° S
NOSS 3-4 (A) 4.3 12:11:54 21° SE 12:13:15 23° ESE 12:17:46 10° ENE
NOSS 3-4 (C) 4.3 12:12:24 21° SE 12:13:45 23° ESE 12:18:17 10° ENE
COSMOS 2455 3.1 12:11:05 10° WNW 12:17:08 69° NNE 12:23:10 10° ESE
Cosmos 921 Rocket 4.1 12:12:59 10° NNW 12:17:14 40° NE 12:20:22 16° ESE
Cosmos 2058 3.8 12:14:08 10° N 12:17:49 35° ENE 12:19:49 21° ESE
SL-8 Rocket 4.3 12:11:41 10° SSW 12:17:57 72° WNW 12:24:17 10° NNE
USA 229 DEB 3.7 12:11:41 10° WSW 12:18:10 84° SSE 12:25:39 10° ENE
USA 229 3.7 12:11:44 10° WSW 12:18:14 84° SSE 12:25:43 10° ENE
CZ-2C R/B 4.2 12:14:08 10° E 12:18:49 28° NE 12:23:25 10° NNW
ATLAS 3B R/B 3.0 12:11:27 10° WSW 12:19:20 84° SSE 12:27:13 10° ENE
Cosmos 1869 Rocket 4.3 12:15:07 10° SW 12:19:26 55° WNW 12:23:49 10° NNE
Cosmos 2360 Rocket 2.6 12:14:07 10° WSW 12:19:45 68° NW 12:25:26 10° NE
Cosmos 1602 2.4 12:17:46 10° NNW 12:20:12 84° W 12:20:41 52° S
NOSS 3-1 (C) 3.7 12:17:55 10° WNW 12:23:59 73° SSW 12:30:11 17° ESE
Okean O Rocket 3.8 12:21:27 10° SW 12:24:46 21° W 12:28:05 10° NW
Cosmos 2322 Rocket 2.7 12:21:15 10° WSW 12:26:50 62° NNW 12:32:26 10° NE
Cosmos 2366 rocket 4.3 12:20:52 10° SSW 12:27:01 69° WNW 12:33:12 10° NNE
ALOS 2 3.4 12:24:35 21° ESE 12:27:08 41° ENE 12:31:17 10° N
Cosmos 407 Rocket 4.3 12:23:25 10° NW 12:28:28 46° NE 12:32:33 15° ESE
Cosmos 1346 Rocket 3.1 12:26:28 10° NNW 12:30:01 52° WSW 12:31:58 24° SSW
Helios 1B rocket 1.9 12:29:44 31° SSE 12:31:17 87° WSW 12:34:51 10° NNW
Cosmos 371 Rocket 4.3 12:26:54 10° NW 12:31:28 40° NE 12:35:28 13° ESE
Cosmos 1818 3.8 12:26:35 10° W 12:32:04 74° N 12:37:33 10° E
Cosmos 1025 Rocket 3.5 12:28:03 10° NNW 12:32:11 52° W 12:34:58 19° SSW
NOSS 0 Rocket 4.1 12:27:16 10° SSW 12:33:16 51° ESE 12:39:17 10° NE
SL-16 R/B 3.2 12:28:39 10° W 12:34:11 50° NNW 12:39:44 10° NE
Cosmos 2297 3.7 12:30:09 10° NW 12:35:56 86° SW 12:39:36 24° SE
USA 59 Rocket 1.0 12:34:42 10° W 12:37:10 21° SW 12:37:48 20° SSW
ARIANE 5 R/B 2.9 12:35:36 26° SE 12:37:51 55° ENE 12:42:07 10° NNW
Cosmos 2237 Rocket 2.6 12:35:06 20° S 12:38:36 42° ESE 12:43:58 10° NE
Cosmos 1980 4.0 12:35:33 19° S 12:39:16 45° ESE 12:44:37 10° NE
Cosmos 2322 3.6 12:34:42 10° SSW 12:40:25 75° SE 12:46:10 10° NE
Spot 4 4.1 12:38:30 25° SE 12:41:09 59° ENE 12:45:50 10° NNW
Cosmos 1975 Rocket 3.2 12:37:54 10° NNW 12:42:22 69° ENE 12:44:35 29° SSE
CSL-04 DEB 4.2 12:43:09 32° S 12:44:34 63° WSW 12:48:03 10° NNW
Cosmos 1869 3.7 12:43:55 32° SE 12:44:40 37° E 12:47:59 10° NNE
DNEPR-1 R/B 4.4 12:47:19 28° SE 12:47:30 29° SE 12:51:26 10° ENE
Cosmos 1140 Rocket 3.5 12:42:40 10° NW 12:47:54 78° NE 12:50:56 25° SE
SeaSat 1 3.6 12:47:21 19° SSW 12:50:10 33° WSW 12:54:38 10° NW
Cosmos 1812 3.3 12:51:17 21° N 12:51:17 21° N 12:52:02 10° NNE
Cosmos 2123 Rocket 4.3 12:44:14 10° NNW 12:50:25 65° W 12:54:54 20° S
Cosmos 1862 3.2 12:48:28 10° NNW 12:52:05 62° ENE 12:53:20 36° SE
NOSS 2-1 (E) 4.4 12:49:40 10° W 12:52:12 22° SW 12:52:29 22° SSW
Meteor 2-8 Rocket 4.4 12:50:55 16° SSW 12:55:56 90° WNW 13:02:03 10° NNE
Cosmos 2219 Rocket 2.7 12:51:35 10° WSW 12:57:09 63° NW 13:02:45 10° NE
SME Rocket 4.1 12:51:55 10° NNE 12:57:10 74° ESE 13:04:16 13° SSW
USA 281 4.1 12:52:44 10° E 12:58:57 47° NNE 13:05:11 10° NW
Cosmos 1174 3.4 12:56:10 10° WNW 13:00:05 82° SSW 13:01:15 39° SE
Cosmos 2221 Rocket 4.4 12:56:24 10° NNW 13:00:34 44° W 13:03:07 21° SSW
IKONOS-2 4.4 12:57:11 10° NNE 13:01:16 62° ESE 13:02:54 34° S
USA 234 3.4 12:56:26 10° ESE 13:02:49 53° S 13:09:13 10° WSW
Cosmos 1934 Rocket 4.0 12:58:55 22° S 13:03:13 76° E 13:09:28 10° NNE
Cosmos 2369 Rocket 2.3 12:59:09 10° NW 13:04:41 62° SW 13:07:35 28° SSE
Cosmos 1908 Rocket 3.4 13:02:46 29° S 13:04:56 79° ESE 13:09:18 10° NNE
Cosmos 2346 Rocket 4.4 12:59:00 10° NNW 13:05:08 90° ENE 13:08:44 27° SSE
Cosmos 192 4.3 13:02:20 10° SW 13:07:14 89° ESE 13:12:12 10° NE
Cosmos 1315 Rocket 3.6 13:06:59 29° ESE 13:07:36 31° E 13:10:58 10° NNE
Cosmos 1269 Rocket 4.0 13:02:30 10° NW 13:07:49 89° SW 13:10:37 29° SE
Cosmos 2263 4.2 13:02:17 10° NW 13:07:53 70° SW 13:10:52 29° SSE
COSMOS 2428 2.7 13:03:17 10° SW 13:09:02 89° SE 13:14:49 10° NE
Cosmos 2278 Rocket 4.2 13:07:09 10° WNW 13:10:51 18° W 13:14:32 10° SW
RESURS DK-1 3.2 13:11:12 29° ESE 13:11:12 29° ESE 13:14:32 10° ENE
CZ-2C R/B 4.4 13:07:09 10° NNE 13:11:19 36° E 13:12:38 30° SE
Cosmos 1125 Rocket 3.5 13:09:07 24° SSW 13:12:14 63° ESE 13:17:28 10° NE
Cosmos 1782 Rocket 3.7 13:11:41 35° SSE 13:13:14 57° E 13:17:29 10° NNE
NOSS 3-1 (A) 3.6 13:07:53 10° WNW 13:14:00 74° SSW 13:20:46 14° ESE
Cosmos 1656 4.1 13:11:18 10° NW 13:16:41 57° NNE 13:21:29 13° ESE
Cosmos 2333 Rocket 3.4 13:15:09 10° W 13:20:35 44° NNW 13:26:01 10° ENE
Cosmos 1535 Rocket 4.5 13:18:44 27° S 13:22:11 69° E 13:28:18 10° NNE
SAR-Lupe-2 3.4 13:22:18 48° S 13:23:10 78° WSW 13:26:40 10° NNW
Cosmos 1697 Rocket 3.7 13:17:48 10° NW 13:23:16 45° NNE 13:28:41 10° E
ATLAS 5 CENTAUR R/B 1.0 13:20:47 10° W 13:24:13 84° SSW 13:26:55 20° ESE
Cosmos 1605 Rocket 3.9 13:25:07 28° S 13:28:29 71° E 13:34:36 10° NNE
Cosmos 2251 Rocket 4.0 13:27:00 10° NW 13:32:16 60° NE 13:35:59 19° ESE
Helios 1A 2.9 13:32:38 10° NNE 13:36:39 75° WNW 13:38:31 30° SSW
Cosmos 1400 Rocket 3.9 13:34:10 15° WSW 13:36:49 36° WNW 13:40:13 10° N
Cosmos 405 Rocket 3.3 13:34:44 10° NNW 13:37:27 31° W 13:37:47 30° WSW
Meteor 2-3 Rocket 3.9 13:31:58 10° NNW 13:37:39 67° ENE 13:40:42 28° SE
Cosmos 1980 Rocket 3.5 13:32:33 10° WNW 13:37:57 41° NNE 13:43:21 10° E
ARIANE 6 FM1 Upper Stage 2.4 13:40:11 10° WSW 13:44:13 72° S 13:48:12 10° E
SJ 16-02 1.5 13:40:52 10° NNW 13:45:10 64° NE 13:47:11 30° ESE
SL-16 R/B 2.7 13:43:43 31° SSE 13:45:38 41° ESE 13:50:57 10° NE
TSX-5 4.0 13:45:13 36° SSW 13:46:47 58° SE 13:50:39 10° NE
Cosmos 1954 Rocket 4.4 13:46:14 10° NW 13:51:31 63° NE 13:55:07 20° ESE
Cosmos 2173 Rocket 4.4 13:49:06 28° SSE 13:52:01 47° E 13:57:49 10° NNE
Cosmos 1536 Rocket 3.4 13:48:37 10° NNW 13:52:58 86° ENE 13:54:27 41° SSE
Cosmos 2058 3.4 13:50:12 10° NNW 13:54:00 46° W 13:55:09 35° SW
Cosmos 2100 Rocket 4.4 13:51:25 28° SSE 13:54:23 50° E 14:00:19 10° NNE
Cosmos 921 Rocket 3.2 13:51:07 10° NW 13:55:33 60° WSW 13:56:56 40° S
Okean 2 Rocket 4.2 13:56:06 27° ESE 13:57:25 32° E 14:01:22 10° NNE
CZ-2C R/B 2.8 13:55:29 29° SSE 13:58:27 77° ENE 14:03:58 10° NNW
Cosmos 304 Rocket 3.7 13:56:00 10° NW 14:00:46 78° WSW 14:02:38 37° SSE
Cosmos 1300 Rocket 3.9 13:59:46 28° SW 14:01:51 59° WNW 14:06:07 10° NNE
NOSS 3-4 (A) 3.3 13:59:13 21° SW 14:02:57 58° SE 14:09:08 10° ENE
COSMOS 2455 2.8 13:57:12 10° WNW 14:03:12 66° SW 14:06:23 28° SSE
NOSS 3-4 (C) 3.3 13:59:43 21° SW 14:03:26 58° SE 14:09:40 10° ENE
ALOS 2 3.1 14:01:59 34° SSW 14:03:29 49° W 14:07:46 10° NNW
Cosmos 968 Rocket 4.3 13:59:15 10° NW 14:04:16 48° NE 14:09:19 10° ESE
Cosmos 2360 Rocket 3.6 13:59:12 10° W 14:04:33 41° N 14:09:55 10° ENE
Helios 1B rocket 4.2 14:03:44 14° WSW 14:04:52 16° W 14:07:09 10° NW
PSLV R/B 3.8 14:01:07 10° NNE 14:05:21 55° ESE 14:06:30 40° SSE
NOSS 5 (C) 4.5 14:03:18 10° WNW 14:07:25 67° SSW 14:08:12 49° SE
USA 229 DEB 3.8 14:02:27 10° W 14:09:16 89° S 14:17:02 10° ESE
USA 229 3.8 14:02:30 10° W 14:09:19 89° SSW 14:17:06 10° ESE
ATLAS 3B R/B 3.0 14:02:25 10° W 14:10:22 87° N 14:18:11 10° E
Cosmos 407 Rocket 3.5 14:05:29 10° NW 14:10:38 64° WSW 14:12:38 36° S
Cosmos 2322 Rocket 3.6 14:06:27 10° WNW 14:11:44 40° N 14:17:02 10° ENE
Cosmos 371 Rocket 3.2 14:07:13 10° NW 14:12:03 72° WSW 14:13:54 37° SSE
Cosmos 1892 Rocket 3.9 14:09:15 10° NNW 14:13:41 61° ENE 14:15:32 33° SE
NOSS 3-1 (C) 4.4 14:08:21 10° WNW 14:14:20 39° SW 14:17:29 28° S
ARIANE 5 R/B 3.6 14:12:58 27° SW 14:14:23 35° W 14:18:24 10° NNW
Cosmos 1818 3.5 14:10:19 10° WNW 14:15:49 80° SSW 14:20:27 15° ESE
Cosmos 2298 Rocket 4.0 14:15:55 33° SSW 14:18:17 70° ESE 14:23:37 10° NE
Cosmos 1869 4.2 14:17:43 24° WSW 14:19:13 36° WNW 14:22:33 10° N
SL-16 R/B 3.7 14:14:00 10° WNW 14:19:20 39° N 14:24:40 10° ENE
NOSS 0 Rocket 4.2 14:13:24 10° WSW 14:19:40 71° NNW 14:25:55 10° NE
MetOp-A 4.2 14:18:28 35° SSW 14:20:20 57° WSW 14:25:21 10° NNW
Cosmos 2237 Rocket 2.4 14:16:49 10° SW 14:22:28 74° NW 14:28:13 10° NE
Cosmos 1980 3.9 14:17:31 10° WSW 14:23:10 71° NW 14:28:51 10° NE
Landsat 5 4.4 14:21:36 10° NNE 14:25:25 35° E 14:26:32 30° SE
Okean 1 Rocket 3.6 14:24:49 34° SE 14:26:05 45° E 14:30:14 10° NNE
Cosmos 1140 Rocket 4.5 14:24:40 10° NW 14:29:15 32° WSW 14:30:49 27° SW
Cosmos 1153 Rocket 4.5 14:26:45 29° SSW 14:30:08 84° WNW 14:36:26 10° NNE
Cosmos 1356 Rocket 3.4 14:30:04 41° SW 14:31:24 76° WNW 14:35:29 10° NNE
DNEPR-1 R/B 3.5 14:31:29 23° WSW 14:34:11 77° SSE 14:39:03 10° ENE
Cosmos 1743 2.3 14:32:47 10° N 14:35:51 61° ENE 14:36:08 57° ESE
Cosmos 1802 Rocket 4.2 14:32:38 29° SSE 14:35:52 63° E 14:42:07 10° NNE
Meteor 2-12 Rocket 4.4 14:30:10 10° NNW 14:36:18 86° ENE 14:39:36 29° SSE
Cosmos 2219 Rocket 3.6 14:36:41 10° WNW 14:41:57 40° N 14:47:14 10° ENE
Cosmos 1315 Rocket 3.3 14:41:40 32° WSW 14:43:02 49° WNW 14:46:44 10° NNE
Cosmos 1725 Rocket 4.2 14:39:52 29° SSE 14:43:08 65° E 14:49:24 10° NNE
USA 281 3.2 14:38:04 18° SE 14:43:08 89° SW 14:49:47 10° NW
USA 234 3.5 14:41:24 14° SE 14:46:43 42° SSW 14:52:54 10° W
Cosmos 2369 Rocket 3.7 14:43:50 10° WNW 14:47:46 20° WSW 14:49:20 18° SW
RESURS DK-1 2.3 14:46:23 31° WSW 14:48:10 78° NW 14:52:09 10° NE
CZ-2C R/B 4.2 14:44:04 10° NNE 14:48:28 54° WNW 14:50:37 27° SW
ACS3 Solar Sail 3.0 14:43:38 10° NNE 14:48:48 30° E 14:52:41 16° SE
Cosmos 1455 Rocket 3.8 14:48:06 30° SE 14:49:40 42° E 14:53:51 10° NNE
Cosmos 1758 Rocket 4.2 14:48:27 10° N 14:52:40 50° ENE 14:54:59 24° SE
Cosmos 2360 4.2 14:47:00 10° NW 14:52:41 69° SW 14:55:52 27° SSE
COSMOS 2428 3.7 14:48:16 10° W 14:53:48 47° NNW 14:59:21 10° NE
Cosmos 1125 Rocket 4.4 14:49:24 10° WSW 14:54:29 47° NW 14:59:37 10° NE
CZ-2C R/B 3.0 14:50:14 10° NNE 14:55:08 73° ESE 14:57:16 35° S
Cosmos 1190 Rocket 4.1 14:51:14 10° NW 14:56:29 61° WSW 14:58:40 34° S
SL-19 R/B 4.2 14:57:21 39° WNW 14:57:21 39° WNW 14:59:15 10° NNW
Cosmos 2285 Rocket 4.1 14:53:02 21° SW 14:57:33 77° NW 15:03:56 10° NE
Cosmos 1656 3.7 14:55:04 10° NW 15:00:25 59° SW 15:02:52 31° S
NOSS 3-1 (A) 4.3 14:58:22 10° WNW 15:04:26 40° SW 15:08:05 26° S
Cosmos 2333 Rocket 3.5 15:00:35 10° WNW 15:05:58 42° N 15:11:21 10° E
ATLAS 5 CENTAUR R/B 1.7 15:02:37 10° WNW 15:06:03 42° SW 15:06:03 42° SW
Cosmos 292 Rocket 3.9 15:02:18 10° NW 15:07:09 77° NE 15:10:45 18° SE
Cosmos 2061 Rocket 4.3 15:04:06 27° SSE 15:07:31 60° E 15:13:36 10° NNE
Cosmos 1697 Rocket 2.7 15:02:06 10° NW 15:07:48 87° NE 15:13:28 10° SE
Cosmos 2233 Rocket 4.2 15:04:45 28° S 15:08:11 67° E 15:14:26 10° NNE
CZ-4C R/B 3.0 15:05:31 10° NNE 15:08:46 56° ESE 15:09:12 51° SE
Cosmos 2150 Rocket 4.2 15:07:27 22° SW 15:10:44 66° NW 15:15:58 10° NE
Cosmos 1943 3.4 15:08:32 32° S 15:11:04 59° SE 15:16:39 10° NE
Cosmos 2251 Rocket 3.9 15:09:23 10° NW 15:14:27 47° WSW 15:16:22 33° SSW
GRACE-FO 1 4.3 15:14:10 56° SSW 15:14:48 80° W 15:18:15 10° N
Tsikada Rocket 4.1 15:08:51 10° NNW 15:15:10 65° W 15:18:29 29° SSW
GRACE-FO 2 4.3 15:14:37 56° SSW 15:15:15 79° W 15:18:43 10° N
Cosmos 1459 Rocket 4.1 15:13:05 27° SSW 15:16:42 73° WNW 15:23:05 10° NNE
Cosmos 2084 Rocket 3.3 15:20:24 36° SW 15:21:54 65° SSE 15:26:03 10° ENE
Cosmos 1980 Rocket 2.5 15:17:02 10° NW 15:22:44 70° NE 15:28:26 10° ESE
SJ 16-02 2.1 15:19:13 10° NW 15:23:02 32° WSW 15:23:40 30° SW
ARIANE 6 FM1 Upper Stage 2.4 15:19:07 10° W 15:23:06 64° SSW 15:27:02 10° ESE
Cosmos 2016 Rocket 4.0 15:19:54 29° SSW 15:23:27 88° WNW 15:29:52 10° NNE
Cosmos 2151 Rocket 3.9 15:22:23 32° SW 15:24:14 57° WNW 15:28:36 10° NNE
Cosmos 1602 Rocket 4.0 15:20:55 10° NNW 15:25:15 59° ENE 15:27:59 21° SE
Cosmos 332 Rocket 3.8 15:21:44 10° NW 15:26:33 61° WSW 15:28:39 32° S
Nadezhda 4 Rocket 4.2 15:20:54 10° NNW 15:27:10 69° ENE 15:32:17 16° SSE
ARGOS Delta rocket 4.0 15:23:25 10° N 15:27:43 54° WNW 15:29:40 30° SW
Cosmos 676 Rocket 4.2 15:22:46 10° NW 15:27:59 56° WSW 15:30:22 30° S
SL-16 R/B 2.3 15:25:32 20° WSW 15:29:32 75° NW 15:35:15 10° NE
SL-16 R/B 4.5 15:24:19 10° E 15:29:38 30° NE 15:34:58 10° NNW
Cosmos 1954 Rocket 4.5 15:28:24 10° NW 15:33:23 43° WSW 15:35:15 31° SSW
Cosmos 1420 Rocket 4.5 15:32:08 29° S 15:34:32 50° ESE 15:39:38 10° NE
Okean 2 Rocket 3.4 15:33:19 32° SW 15:35:11 58° WNW 15:39:36 10° NNE
Cosmos 2173 Rocket 4.3 15:33:40 24° SW 15:37:20 56° WNW 15:43:21 10° NNE
CZ-2C R/B 3.7 15:36:55 24° SW 15:39:11 33° W 15:44:08 10° NNW
Cosmos 2100 Rocket 4.4 15:36:06 23° SW 15:39:53 54° WNW 15:45:58 10° NNE
GP-B 4.2 15:37:00 10° N 15:41:07 38° ENE 15:44:22 15° SE
Cosmos 2151 2.8 15:38:02 10° NNW 15:42:14 90° ENE 15:44:15 30° SSE
Cosmos 1850 Rocket 3.9 15:39:07 10° NW 15:44:22 79° WSW 15:48:34 16° SSE
Cosmos 968 Rocket 3.5 15:41:05 10° NW 15:46:11 61° WSW 15:49:12 24° S
Cosmos 2056 Rocket 4.4 15:43:40 23° SSE 15:46:29 41° ESE 15:51:33 10° NE
Aureole 3 Rocket 3.2 15:45:35 33° S 15:47:20 74° E 15:52:38 10° NNE
Cosmos 44 3.5 15:45:14 28° SW 15:47:59 67° SSE 15:53:21 10° ENE
USA 267 4.3 15:42:32 10° E 15:48:02 28° SE 15:50:41 22° S
COSMOS 2455 3.9 15:43:30 10° WNW 15:48:16 25° WSW 15:49:29 23° SW
Cosmos 2360 Rocket 3.5 15:44:15 10° WNW 15:49:40 43° NNE 15:55:04 10° E
Cosmos 1626 Rocket 3.6 15:46:36 10° NNW 15:50:52 62° W 15:52:36 33° SSW
Meteor 1-27 4.3 15:48:01 27° SSW 15:51:20 87° ESE 15:57:09 10° NNE
Cosmos 1076 Rocket 4.5 15:47:08 10° N 15:51:20 46° ENE 15:55:31 10° SE
Sich 1 Rocket 4.0 15:50:28 28° SW 15:52:31 51° WNW 15:56:51 10° N
NOSS 3-4 (A) 3.4 15:47:51 10° W 15:53:37 89° SSE 16:00:22 10° E
NOSS 3-4 (C) 3.4 15:48:20 10° W 15:54:06 89° S 16:00:54 10° E
Cosmos 1782 2.4 15:55:23 42° SSW 15:56:30 89° WNW 16:00:03 10° NNE
Cosmos 2322 Rocket 3.4 15:51:30 10° NW 15:56:53 44° NNE 16:02:16 10° E
Meteor 2-10 4.3 15:52:30 10° NNW 15:57:43 69° ENE 16:03:06 10° SSE
DELTA 2 DEB (DPAF) 3.8 15:54:24 10° NNE 15:57:59 60° WNW 15:59:18 35° SW
Cosmos 1092 Rocket 4.4 15:52:00 10° NNW 15:58:11 62° ENE 16:04:18 10° SSE
Cosmos 1818 4.2 15:54:00 10° WNW 15:58:55 35° SW 16:01:00 26° S
USA 229 DEB 3.9 15:53:12 10° WNW 16:00:08 62° SW 16:07:57 10° SE
USA 229 3.9 15:53:15 10° WNW 16:00:12 62° SW 16:08:01 10° SE
Landsat 5 3.9 15:56:20 10° NNE 16:00:22 52° WNW 16:02:20 27° SW
ATLAS 3B R/B 2.9 15:53:23 10° WNW 16:01:14 70° SSW 16:08:48 10° SE
Cosmos 2026 Rocket 4.2 15:55:16 10° NNW 16:01:26 70° ENE 16:07:39 10° SSE
Meteor 1-20 Rocket 4.1 15:57:42 10° NNW 16:03:11 68° WSW 16:06:38 23° S
Okean 1 Rocket 3.9 16:01:50 24° WSW 16:03:56 40° WNW 16:08:03 10° N
Cosmos 1805 3.0 16:01:00 10° NNW 16:04:17 67° ENE 16:06:02 25° SSE
SL-16 R/B 3.0 15:58:50 10° NW 16:04:26 53° NNE 16:10:00 10° ESE
Cosmos 2237 Rocket 3.4 16:01:50 10° W 16:07:16 42° NNW 16:12:42 10° ENE
DMSP B5D2-2 4.4 16:02:49 10° SE 16:07:56 65° ENE 16:13:06 10° NNW
Cosmos 1743 4.0 16:06:22 10° NW 16:08:25 18° W 16:08:25 18° W
Spot 1 3.9 16:05:54 10° NNE 16:09:58 77° ESE 16:11:54 30° S
ATLAS 2AS CENTAUR R/B 4.2 16:06:34 12° SSE 16:11:09 23° ESE 16:16:14 10° ENE
Cosmos 2228 3.0 16:13:15 30° SSW 16:15:15 70° WNW 16:19:29 10° NNE
ADEOS II 4.3 16:13:05 10° NE 16:16:50 19° E 16:20:35 10° SE
Resurs 1-4 Rocket 3.9 16:12:56 10° NNE 16:17:21 26° E 16:21:44 10° SE
Meteor 1-5 Rocket 4.0 16:12:33 10° NNW 16:17:53 85° WSW 16:22:34 14° SSE
Cosmos 1833 Rocket 3.9 16:14:55 16° SSE 16:18:41 33° ESE 16:23:38 10° NE
MOZ.5/SAFIR/RUBIN 5/SL-8 3.8 16:14:54 13° SSE 16:19:05 88° E 16:23:49 10° NNW
H-2A R/B 4.2 16:16:00 10° NE 16:19:34 19° E 16:23:10 10° SE
IDEFIX/ARIANE 42P 2.9 16:16:03 10° NNE 16:21:10 58° ESE 16:24:51 19° S
DNEPR-1 R/B 3.9 16:17:05 10° W 16:21:33 76° N 16:26:45 10° E
H-2A R/B 2.7 16:19:28 10° SE 16:23:09 59° ENE 16:26:46 10° NNW
RESURS DK-1 3.7 16:22:18 10° W 16:26:00 36° NNW 16:29:41 10° NE
Cosmos 2219 Rocket 3.4 16:21:37 10° NW 16:27:00 44° NNE 16:32:23 10° E
Cosmos 1455 Rocket 3.7 16:25:03 23° WSW 16:27:23 44° WNW 16:31:39 10° N
Cosmos 1371 Rocket 4.2 16:24:30 23° SSW 16:27:44 64° ESE 16:32:59 10° NE
USA 281 3.9 16:24:55 21° SSW 16:28:23 35° WSW 16:34:21 10° NW
FENGYUN 3A 4.2 16:24:42 10° NNE 16:30:03 54° ESE 16:34:27 15° S
Cosmos 1758 Rocket 4.3 16:26:23 10° NNW 16:30:18 35° W 16:31:59 25° SW
PSLV R/B 3.9 16:26:33 10° NNE 16:30:20 63° WNW 16:32:12 28° SW
USA 234 4.2 16:28:34 19° SSW 16:31:02 24° SW 16:36:08 10° W
ACS3 Solar Sail 1.7 16:25:58 10° NNE 16:31:56 87° WNW 16:36:16 20° SSW
Cosmos 1741 Rocket 4.3 16:28:04 10° NW 16:33:06 46° WSW 16:36:59 17° S
Cosmos 1544 Rocket 3.5 16:31:07 24° SSW 16:33:45 87° WNW 16:38:13 10° NNE
Cosmos 1627 Rocket 4.5 16:28:29 10° NNW 16:34:42 86° WSW 16:40:57 10° S
CZ-2C R/B 4.1 16:30:22 10° N 16:34:43 34° NW 16:38:15 15° WSW
Cosmos 1603 3.7 16:33:29 22° SW 16:37:19 88° SE 16:43:04 10° NE
COSMOS 2428 4.1 16:33:44 10° WNW 16:39:08 40° N 16:44:33 10° ENE
CZ-4C R/B 4.5 16:38:41 10° N 16:41:25 24° NW 16:42:59 17° W
Cosmos 1953 Rocket 3.6 16:38:09 10° NNW 16:42:39 88° ENE 16:47:07 10° SSE
NPP 3.9 16:37:18 10° NNE 16:42:41 65° ESE 16:47:05 16° S
Cosmos 2098 Rocket 3.8 16:40:12 17° S 16:44:26 77° E 16:50:10 10° NNE
Spot 2 4.4 16:42:59 10° SSE 16:47:40 85° ENE 16:52:34 10° NNW
Cosmos 1726 Rocket 4.4 16:45:36 12° S 16:49:38 48° E 16:53:51 10° NNE
Cosmos 2333 Rocket 2.6 16:45:22 10° NW 16:51:03 69° NE 16:56:43 10° ESE
Cosmos 2369 3.6 16:45:34 10° NW 16:51:15 76° SW 16:56:57 10° SE
Cosmos 1697 Rocket 3.4 16:46:19 10° NW 16:51:20 34° WSW 16:55:12 16° SSW
Cosmos 1933 3.1 16:50:24 23° SSW 16:52:43 84° WNW 16:56:33 10° NNE
Okean 1-7 Rocket 3.8 16:48:39 10° NNW 16:52:53 48° W 16:55:45 19° SSW
CZ-2D R/B 3.3 16:49:25 10° NNE 16:54:15 37° E 16:59:05 10° SSE
EP 1 4.4 16:52:18 15° W 16:54:46 87° N 16:57:26 10° E
Cosmos 1943 3.6 16:50:16 14° WSW 16:55:12 60° NNW 17:00:51 10° NE
Okean 1 3.9 16:56:09 13° S 16:59:08 45° E 17:02:32 10° NNE
Cosmos 2084 Rocket 3.3 16:56:26 10° W 17:00:35 85° S 17:04:48 10° E
Cosmos 1825 Rocket 3.8 16:57:28 10° NNW 17:01:39 48° W 17:04:44 17° SSW
ARIANE 6 FM1 Upper Stage 3.3 16:58:10 10° W 17:01:40 30° SW 17:05:09 10° SSE
Cosmos 1602 Rocket 4.5 16:58:55 10° NNW 17:02:45 31° W 17:04:57 19° SW
Cosmos 1980 Rocket 2.5 17:01:11 10° NW 17:06:37 46° WSW 17:12:01 10° S
Cosmos 1464 Rocket 4.0 17:05:33 16° SSW 17:10:35 71° WNW 17:16:45 10° NNE
Cosmos 1536 2.6 17:07:04 10° NNW 17:10:48 83° ENE 17:14:28 10° SSE
MSX 3.8 17:05:50 10° NNE 17:11:36 80° WNW 17:16:28 15° SSW
SL-16 R/B 2.9 17:06:15 10° SE 17:12:28 70° ENE 17:18:44 10° NNW
Cosmos 1777 Rocket 4.3 17:08:41 10° NW 17:14:00 73° NE 17:19:17 10° SE
SL-16 R/B 3.3 17:08:58 10° W 17:14:22 42° NNW 17:19:47 10° ENE
Cosmos 1437 Rocket 2.4 17:13:27 18° SSW 17:15:56 86° ESE 17:19:23 10° NNE
Cosmos 1420 Rocket 4.4 17:12:16 15° WSW 17:16:32 56° NW 17:21:46 10° NE
GP-B 3.5 17:14:05 10° N 17:18:17 46° W 17:21:31 16° SSW
SL-08 ROCKET BODY 4.3 17:14:45 10° NNW 17:20:39 78° W 17:26:36 10° S
ALOS 3.0 17:18:25 10° NNE 17:22:53 50° E 17:27:19 10° S
Cosmos 2034 Rocket 4.1 17:17:57 12° SSW 17:23:49 79° WNW 17:30:15 10° NNE
Cosmos 2278 3.8 17:22:03 10° NW 17:27:48 87° NE 17:33:31 10° SE
Cosmos 2056 Rocket 3.8 17:23:53 15° SW 17:28:23 67° NW 17:33:49 10° NE
Cosmos 1076 Rocket 4.1 17:24:35 10° NNW 17:28:37 39° W 17:32:21 12° SSW
Cosmos 44 3.7 17:23:54 10° W 17:29:13 77° N 17:34:40 10° ENE
Cosmos 1782 4.5 17:29:18 11° W 17:31:40 18° NW 17:34:13 10° N
USA 267 3.7 17:25:56 10° E 17:32:13 46° SSE 17:38:01 12° SW
Meteor 2-9 Rocket 4.2 17:28:36 10° NNW 17:34:08 82° ENE 17:39:31 10° SSE
Cosmos 2360 Rocket 2.5 17:28:39 10° NW 17:34:22 76° NE 17:40:03 10° SE
Cosmos 2082 Rocket 3.8 17:30:49 10° S 17:35:42 30° ESE 17:40:39 10° NE
Cosmos 2237 4.3 17:30:11 10° NW 17:35:46 54° WSW 17:41:19 10° SSE
Cosmos 1470 2.6 17:32:41 10° NNW 17:36:05 73° ENE 17:39:26 10° SSE
Cosmos 1805 4.5 17:35:19 10° NW 17:37:40 18° W 17:39:02 15° WSW
Aureole 1 4.4 17:35:32 16° SW 17:37:45 60° NW 17:40:53 10° NNE
Cosmos 2058 Rocket 3.5 17:34:57 10° S 17:39:24 66° E 17:43:50 10° NNE
Cosmos 1624 Rocket 4.3 17:35:05 13° WSW 17:39:39 60° NW 17:44:48 10° NE
ADEOS Rocket 3.5 17:33:00 10° NNE 17:39:52 84° WNW 17:47:22 10° SSW
Cosmos 2322 Rocket 2.3 17:35:52 10° NW 17:41:32 84° NE 17:47:12 10° SE
H-2A R/B 4.1 17:38:01 10° NE 17:41:33 26° E 17:44:59 10° SSE
Cosmos 1766 3.0 17:38:29 10° NNW 17:41:35 47° W 17:44:42 10° S
Cosmos 1092 Rocket 4.4 17:37:37 10° NNW 17:43:27 43° W 17:49:11 10° SSW
Cosmos 2266 Rocket 4.0 17:37:15 10° NNW 17:43:35 88° WSW 17:49:45 10° SSE
NOSS 3-4 (A) 3.6 17:38:33 10° WNW 17:44:34 82° SSW 17:51:44 10° ESE
NOSS 3-4 (C) 3.6 17:39:02 10° WNW 17:45:05 82° SSW 17:52:15 10° ESE
Meteor 1-14 Rocket 4.3 17:39:47 10° NNW 17:45:45 83° WSW 17:51:33 10° SSE
Cosmos-2242 3.1 17:41:32 10° S 17:45:46 78° ESE 17:50:00 10° NNE
Cosmos 1302 Rocket 4.5 17:41:57 10° SSW 17:47:02 58° ESE 17:52:07 10° NE
SL-16 R/B 2.2 17:43:08 10° NW 17:48:48 70° SW 17:54:27 10° SSE
Meteor 1-11 Rocket 4.1 17:43:55 10° NNW 17:49:57 79° ENE 17:55:54 10° SSE
ATLAS 3B R/B 3.5 17:44:17 10° WNW 17:51:09 35° WSW 17:57:45 10° S
Aureole 1 Rocket 3.6 17:48:49 10° NNW 17:51:52 45° NE 17:55:22 10° ESE
Cosmos 1606 Rocket 3.9 17:48:19 11° SW 17:52:27 53° WNW 17:56:49 10° NNE
Cosmos 2237 Rocket 3.5 17:47:01 10° WNW 17:52:27 41° NNE 17:57:52 10° E
Envisat 3.0 17:48:49 10° NNE 17:53:56 89° NW 17:59:01 10° SSW
ADEOS II 2.4 17:52:06 10° NNE 17:57:21 69° ESE 18:02:35 10° S
H-2A R/B 3.3 17:54:14 10° SSW 17:57:23 26° W 18:00:32 10° NW
Resurs 1-4 Rocket 2.2 17:52:28 10° NNE 17:57:50 88° ESE 18:03:10 10° SSW
Cosmos 2221 3.7 17:54:32 10° SSE 17:58:27 42° E 18:02:22 10° NNE
H-2A R/B 2.2 17:54:47 10° NNE 17:59:45 72° ESE 18:04:48 10° SSW
IDEFIX/ARIANE 42P 3.2 17:55:43 10° NNE 18:00:34 43° NW 18:05:26 10° SW
ATLAS 2AS CENTAUR R/B 3.2 17:54:10 10° SW 18:00:52 54° SE 18:07:26 10° ENE
Cosmos 1707 2.1 17:57:59 10° S 18:00:53 74° ESE 18:03:50 10° NNE
SL-24 R/B 4.4 17:57:11 10° N 18:02:02 75° W 18:07:10 10° SSW
Cosmos 1833 Rocket 2.7 17:56:34 10° SW 18:02:09 88° NW 18:07:50 10° NE
Cosmos 2333 4.3 17:56:44 10° NW 18:02:24 88° NE 18:08:05 10° SE
NOAA 11 4.3 17:57:10 10° NNE 18:02:34 67° WNW 18:07:57 10° SW
Cosmos 1331 Rocket 4.1 17:58:14 10° SW 18:03:32 75° NW 18:08:50 10° NE
RESURS DK-1 4.0 18:00:32 10° WNW 18:04:09 33° N 18:07:47 10° ENE
Cosmos 1354 Rocket 4.1 17:59:14 10° NW 18:04:35 88° NE 18:09:54 10° SE
Iridium 4 Rocket 3.5 18:03:47 10° S 18:08:07 70° E 18:12:51 10° N
Cosmos 1110 Rocket 4.2 18:02:53 10° SW 18:08:08 70° NW 18:13:28 10° NE
DNEPR-1 R/B 3.9 18:04:15 10° WNW 18:08:56 78° SSW 18:14:32 10° ESE
FENGYUN 3A 4.2 18:05:06 10° NNE 18:10:18 48° NW 18:15:30 10° SW
Cosmos 2219 Rocket 2.3 18:05:54 10° NW 18:11:33 83° NE 18:17:13 10° SE
Cosmos 1503 Rocket 4.0 18:08:28 10° NW 18:13:48 69° WSW 18:19:02 10° SSE
ACS3 Solar Sail 2.8 18:08:44 10° NNE 18:13:51 32° NW 18:19:04 10° WSW
Cosmos 1975 2.7 18:15:06 10° NNW 18:18:39 55° W 18:22:12 10° S
Cosmos 1898 Rocket 4.2 18:13:51 10° NW 18:19:00 59° NE 18:24:07 10° SE
Cosmos 1812 Rocket 4.4 18:16:44 10° S 18:20:55 53° E 18:25:08 10° NNE
Cosmos 1634 Rocket 4.2 18:15:34 10° SSW 18:21:42 61° WNW 18:27:50 10° NNE
Cosmos 1603 4.5 18:16:29 10° W 18:21:58 47° NNW 18:27:29 10° NE
SL-19 R/B 4.4 18:16:40 10° NNE 18:22:20 89° ESE 18:27:56 10° SSW
NPP 4.4 18:17:45 10° NNE 18:22:47 41° NW 18:27:48 10° WSW
Meteor 2-2 Rocket 4.3 18:17:18 10° SSW 18:23:00 79° WNW 18:28:41 10° NNE
COSMOS 2428 3.5 18:18:37 10° NW 18:24:19 60° NNE 18:29:59 10° ESE
